Location: Rounton
(54.4000°N, 1.3500°W)
Time: 06:40:50
(UTC+01:00)

deb Agena D - Pass Details

Date: 11 June 2023
Orbit: 996 x 1023 km, 100.1° (Epoch: 29 September)

Event Time Altitude Azimuth Distance (km) Brightness Sun altitude
Rises 22:19:04 0° 88° (E) 3,728 ? -4.7°
Reaches altitude 10° 22:22:49 10° 66° (ENE) 2,778 ? -5.0°
Maximum altitude 22:25:53 14° 36° (NE) 2,473 ? -5.3°
Drops below altitude 10° 22:28:57 10° 6° (N) 2,779 ? -5.5°
Sets 22:32:41 0° 343° (NNW) 3,731 ? -5.9°
